Location: Campillo
(40.8621°N, 4.2488°W)
Time: 14:24:24
(UTC+00:00)

USA 306 - Pass Details

Date: 25 September 2021
Orbit: 564 x 573 km, 54.0° (Epoch: 24 September)

Event Time Altitude Azimuth Distance (km) Brightness Sun altitude
Rises 19:15:20 0° 310° (NW) 2,760 7.5 -13.3°
Reaches altitude 10° 19:18:25 10° 334° (NNW) 1,864 6.0 -13.9°
Maximum altitude 19:20:57 15° 11° (N) 1,554 5.1 -14.4°
Enters shadow 19:23:24 10° 47° (NE) 1,852 5.2 -14.8°
